WZZ5276 LYPG-LIRF

Flight info

Callsign WZZ5276
Flight time 1h 12m
Altitude 35000
Route LASTI DCT MN42A DCT MOPUV
Aircraft A21N/M-SDE2E3FGHIRWXY/LB1

Departure

Time 2026-05-05 13:05
Airport Podgorica Airport / Podgorica Golubovci Airbase (LYPG)

Arrival

Time 2026-05-05 14:17
Airport Rome–Fiumicino Leonardo da Vinci International Airport (LIRF)
Time Latitude Longitude Altitude Speed Heading
2026-05-05 13:02 42.36932 19.25010 117 ft 11 kts 80°
2026-05-05 13:03 42.36984 19.25051 117 ft 7 kts
2026-05-05 13:03 42.37044 19.25064 118 ft 9 kts
2026-05-05 13:03 42.37088 19.25114 119 ft 9 kts 86°
2026-05-05 13:03 42.37076 19.25197 119 ft 9 kts 115°
2026-05-05 13:04 42.37044 19.25271 120 ft 9 kts 124°
2026-05-05 13:04 42.36988 19.25297 119 ft 10 kts 183°
2026-05-05 13:04 42.36693 19.25265 116 ft 78 kts 184°
2026-05-05 13:04 42.35924 19.25186 106 ft 140 kts 184°
2026-05-05 13:05 42.34794 19.25055 231 ft 175 kts 186°
2026-05-05 13:05 42.33575 19.24879 771 ft 180 kts 185°
2026-05-05 13:05 42.32348 19.24767 1477 ft 180 kts 183°
2026-05-05 13:05 42.31100 19.24671 2081 ft 183 kts 183°
2026-05-05 13:06 42.29787 19.24555 2436 ft 198 kts 185°
2026-05-05 13:06 42.28450 19.23877 2720 ft 218 kts 220°
2026-05-05 13:06 42.27619 19.22096 3056 ft 237 kts 257°
2026-05-05 13:06 42.27475 19.19864 3710 ft 243 kts 263°
2026-05-05 13:07 42.27034 19.17699 4429 ft 243 kts 244°
2026-05-05 13:07 42.26243 19.15676 5162 ft 245 kts 239°
2026-05-05 13:07 42.25384 19.13691 5870 ft 247 kts 239°
2026-05-05 13:07 42.24526 19.11710 6584 ft 249 kts 240°
2026-05-05 13:08 42.23660 19.09684 7269 ft 252 kts 240°
2026-05-05 13:08 42.22794 19.07638 7950 ft 254 kts 240°
2026-05-05 13:08 42.21916 19.05555 8651 ft 256 kts 240°
2026-05-05 13:08 42.21042 19.03482 9322 ft 258 kts 238°
2026-05-05 13:09 42.20011 19.01496 9956 ft 261 kts 230°
2026-05-05 13:09 42.18749 18.99680 10358 ft 273 kts 224°
2026-05-05 13:09 42.17355 18.97884 10737 ft 285 kts 223°
2026-05-05 13:09 42.15907 18.96047 11246 ft 290 kts 223°
2026-05-05 13:10 42.14429 18.94163 11904 ft 292 kts 223°
2026-05-05 13:10 42.12957 18.92274 12498 ft 294 kts 223°
2026-05-05 13:10 42.11489 18.90368 13097 ft 296 kts 226°
2026-05-05 13:10 42.10371 18.88062 13634 ft 301 kts 249°
2026-05-05 13:11 42.10014 18.85264 14021 ft 311 kts 269°
2026-05-05 13:11 42.10074 18.82321 14284 ft 324 kts 271°
2026-05-05 13:11 42.10155 18.79228 14524 ft 337 kts 271°
2026-05-05 13:11 42.10232 18.75997 14758 ft 350 kts 271°
2026-05-05 13:12 42.10301 18.72696 15010 ft 360 kts 271°
2026-05-05 13:12 42.10365 18.69296 15504 ft 363 kts 271°
2026-05-05 13:12 42.10424 18.65925 16075 ft 364 kts 271°
2026-05-05 13:12 42.10480 18.62535 16605 ft 365 kts 271°
2026-05-05 13:13 42.10534 18.59098 17141 ft 366 kts 271°
2026-05-05 13:13 42.10586 18.55710 17631 ft 367 kts 271°
2026-05-05 13:13 42.10638 18.52246 18133 ft 368 kts 271°
2026-05-05 13:13 42.10689 18.48811 18609 ft 369 kts 271°
2026-05-05 13:14 42.10738 18.45406 19046 ft 371 kts 271°
2026-05-05 13:14 42.10788 18.41928 19472 ft 373 kts 271°
2026-05-05 13:14 42.10836 18.38419 19905 ft 375 kts 271°
2026-05-05 13:14 42.10882 18.34940 20329 ft 376 kts 271°
2026-05-05 13:15 42.10910 18.32715 20589 ft 377 kts 271°
2026-05-05 13:16 42.10962 18.28692 21026 ft 380 kts 271°
2026-05-05 13:16 42.11006 18.25150 21401 ft 382 kts 271°
2026-05-05 13:16 42.11049 18.21584 21800 ft 384 kts 271°
2026-05-05 13:17 42.11091 18.18016 22177 ft 386 kts 271°
2026-05-05 13:17 42.11132 18.14387 22531 ft 388 kts 271°
2026-05-05 13:17 42.11172 18.10774 22858 ft 390 kts 271°
2026-05-05 13:17 42.11212 18.07127 23203 ft 392 kts 271°
2026-05-05 13:18 42.11251 18.03427 23563 ft 393 kts 271°
2026-05-05 13:18 42.11288 17.99741 23890 ft 395 kts 271°
2026-05-05 13:18 42.11325 17.96071 24231 ft 397 kts 271°
2026-05-05 13:18 42.11361 17.92368 24580 ft 398 kts 271°
2026-05-05 13:19 42.11395 17.88629 24912 ft 399 kts 271°
2026-05-05 13:19 42.11429 17.84917 25236 ft 400 kts 271°
2026-05-05 13:19 42.11460 17.81204 25537 ft 402 kts 271°
2026-05-05 13:19 42.11491 17.77415 25843 ft 402 kts 271°
2026-05-05 13:20 42.11521 17.73670 26159 ft 403 kts 271°
2026-05-05 13:20 42.11549 17.69919 26451 ft 404 kts 271°
2026-05-05 13:20 42.11578 17.66151 26711 ft 406 kts 271°
2026-05-05 13:20 42.11604 17.62364 26969 ft 407 kts 271°
2026-05-05 13:21 42.11631 17.58527 27258 ft 408 kts 271°
2026-05-05 13:21 42.11656 17.54750 27515 ft 409 kts 271°
2026-05-05 13:21 42.11679 17.50889 27734 ft 411 kts 271°
2026-05-05 13:21 42.11699 17.47061 27995 ft 411 kts 271°
2026-05-05 13:22 42.11720 17.43217 28287 ft 411 kts 271°
2026-05-05 13:22 42.11737 17.39398 28536 ft 412 kts 271°
2026-05-05 13:22 42.11756 17.35547 28747 ft 414 kts 271°
2026-05-05 13:22 42.11773 17.31704 28995 ft 414 kts 270°
2026-05-05 13:23 42.11787 17.27805 29328 ft 413 kts 270°
2026-05-05 13:23 42.11800 17.23986 29704 ft 411 kts 271°
2026-05-05 13:23 42.11811 17.20162 30103 ft 408 kts 271°
2026-05-05 13:23 42.11823 17.16352 30494 ft 406 kts 271°
2026-05-05 13:24 42.11833 17.12576 30836 ft 404 kts 271°
2026-05-05 13:24 42.11841 17.08822 31101 ft 404 kts 271°
2026-05-05 13:24 42.11855 17.01232 30918 ft 411 kts 271°
2026-05-05 13:25 42.11861 16.97385 30633 ft 411 kts 270°
2026-05-05 13:25 42.11865 16.93556 30356 ft 410 kts 270°
2026-05-05 13:25 42.11868 16.89788 30077 ft 409 kts 270°
2026-05-05 13:25 42.11868 16.85972 29811 ft 406 kts 270°
2026-05-05 13:26 42.11867 16.82164 29545 ft 406 kts 270°
2026-05-05 13:26 42.11867 16.78398 29284 ft 406 kts 270°
2026-05-05 13:26 42.11865 16.74607 29023 ft 407 kts 270°
2026-05-05 13:26 42.11861 16.70782 28760 ft 408 kts 270°
2026-05-05 13:27 42.11856 16.66991 28497 ft 407 kts 270°
2026-05-05 13:27 42.11849 16.63232 28236 ft 405 kts 270°
2026-05-05 13:27 42.11843 16.59474 27980 ft 404 kts 270°
2026-05-05 13:27 42.11834 16.55690 27717 ft 403 kts 270°
2026-05-05 13:28 42.11823 16.51917 27456 ft 402 kts 270°
2026-05-05 13:28 42.11811 16.48196 27198 ft 401 kts 270°
2026-05-05 13:28 42.11799 16.44444 26938 ft 399 kts 270°
2026-05-05 13:28 42.11786 16.40762 26684 ft 398 kts 270°
2026-05-05 13:29 42.11772 16.37036 26424 ft 397 kts 270°
2026-05-05 13:29 42.11755 16.33335 26162 ft 395 kts 269°
2026-05-05 13:29 42.11738 16.29642 25905 ft 394 kts 269°
2026-05-05 13:29 42.11719 16.25987 25649 ft 393 kts 269°
2026-05-05 13:30 42.11700 16.22341 25393 ft 392 kts 269°
2026-05-05 13:30 42.11680 16.18698 25134 ft 390 kts 269°
2026-05-05 13:30 42.11659 16.15085 24879 ft 388 kts 269°
2026-05-05 13:30 42.11639 16.11438 24621 ft 387 kts 269°
2026-05-05 13:31 42.11615 16.07867 24368 ft 386 kts 269°
2026-05-05 13:31 42.11587 16.04225 24107 ft 385 kts 269°
2026-05-05 13:31 42.11559 16.00665 23849 ft 385 kts 269°
2026-05-05 13:31 42.11531 15.97081 23595 ft 383 kts 269°
2026-05-05 13:32 42.11502 15.93507 23341 ft 382 kts 269°
2026-05-05 13:32 42.11473 15.89960 23089 ft 381 kts 269°
2026-05-05 13:32 42.11443 15.86411 22834 ft 379 kts 269°
2026-05-05 13:32 42.11411 15.82869 22581 ft 378 kts 269°
2026-05-05 13:33 42.11379 15.79352 22331 ft 377 kts 269°
2026-05-05 13:33 42.11346 15.75815 22080 ft 376 kts 269°
2026-05-05 13:33 42.11312 15.72326 21828 ft 376 kts 269°
2026-05-05 13:33 42.11277 15.68832 21576 ft 374 kts 269°
2026-05-05 13:34 42.11241 15.65322 21321 ft 373 kts 269°
2026-05-05 13:34 42.11205 15.61881 21068 ft 372 kts 269°
2026-05-05 13:34 42.11166 15.58388 20822 ft 370 kts 269°
2026-05-05 13:34 42.11129 15.54959 20566 ft 369 kts 269°
2026-05-05 13:35 42.11088 15.51527 20316 ft 368 kts 269°
2026-05-05 13:35 42.11048 15.48104 20068 ft 367 kts 269°
2026-05-05 13:35 42.11006 15.44693 19816 ft 365 kts 269°
2026-05-05 13:35 42.10965 15.41280 19566 ft 364 kts 269°
2026-05-05 13:36 42.10921 15.37900 19318 ft 364 kts 269°
2026-05-05 13:36 42.10877 15.34470 19066 ft 362 kts 268°
2026-05-05 13:36 42.10831 15.31115 18806 ft 361 kts 268°
2026-05-05 13:36 42.10785 15.27741 18555 ft 360 kts 268°
2026-05-05 13:37 42.10739 15.24422 18302 ft 359 kts 268°
2026-05-05 13:37 42.10691 15.21041 18045 ft 358 kts 268°
2026-05-05 13:37 42.10642 15.17701 17797 ft 357 kts 268°
2026-05-05 13:37 42.10594 15.14399 17543 ft 356 kts 268°
2026-05-05 13:38 42.10542 15.11087 17300 ft 355 kts 268°
2026-05-05 13:38 42.10489 15.07793 17060 ft 355 kts 268°
2026-05-05 13:38 42.10431 15.04465 16814 ft 354 kts 268°
2026-05-05 13:38 42.10373 15.01193 16567 ft 353 kts 268°
2026-05-05 13:39 42.10315 14.97900 16316 ft 352 kts 268°
2026-05-05 13:39 42.10255 14.94606 16032 ft 351 kts 268°
2026-05-05 13:39 42.10194 14.91320 15795 ft 350 kts 269°
2026-05-05 13:39 42.10132 14.88046 15532 ft 350 kts 268°
2026-05-05 13:40 42.10070 14.84793 15299 ft 348 kts 268°
2026-05-05 13:40 42.10007 14.81574 15039 ft 347 kts 269°
2026-05-05 13:40 42.09943 14.78334 14777 ft 346 kts 269°
2026-05-05 13:40 42.09879 14.75132 14538 ft 345 kts 269°
2026-05-05 13:41 42.09813 14.71887 14301 ft 344 kts 269°
2026-05-05 13:41 42.09748 14.68701 14045 ft 342 kts 269°
2026-05-05 13:41 42.09682 14.65505 13789 ft 341 kts 269°
2026-05-05 13:41 42.09615 14.62353 13544 ft 340 kts 269°
2026-05-05 13:42 42.09547 14.59160 13290 ft 339 kts 269°
2026-05-05 13:42 42.09479 14.56013 13053 ft 337 kts 269°
2026-05-05 13:42 42.09409 14.52864 12795 ft 337 kts 269°
2026-05-05 13:42 42.09340 14.49747 12532 ft 335 kts 269°
2026-05-05 13:43 42.09269 14.46635 12281 ft 335 kts 269°
2026-05-05 13:43 42.09197 14.43478 12056 ft 334 kts 269°
2026-05-05 13:43 42.09125 14.40380 11808 ft 333 kts 269°
2026-05-05 13:43 42.09053 14.37259 11582 ft 333 kts 269°
2026-05-05 13:44 42.08981 14.34168 11346 ft 332 kts 268°
2026-05-05 13:44 42.08906 14.31051 11098 ft 330 kts 268°
2026-05-05 13:44 42.08832 14.27994 10875 ft 329 kts 268°
2026-05-05 13:44 42.08757 14.24919 10614 ft 325 kts 268°
2026-05-05 13:45 42.08683 14.21956 10279 ft 318 kts 269°
2026-05-05 13:45 42.08610 14.19025 9973 ft 311 kts 269°
2026-05-05 13:45 42.08537 14.16169 9751 ft 301 kts 268°
2026-05-05 13:45 42.08467 14.13382 9549 ft 291 kts 269°
2026-05-05 13:46 42.08399 14.10730 9424 ft 279 kts 269°
2026-05-05 13:46 42.08334 14.08180 9297 ft 270 kts 269°
2026-05-05 13:46 42.08269 14.05690 9164 ft 269 kts 269°
2026-05-05 13:46 42.08203 14.03152 9039 ft 269 kts 268°
2026-05-05 13:47 42.08137 14.00658 8917 ft 269 kts 268°
2026-05-05 13:47 42.08070 13.98146 8788 ft 270 kts 268°
2026-05-05 13:47 42.08002 13.95608 8689 ft 270 kts 268°
2026-05-05 13:47 42.07934 13.93095 8571 ft 269 kts 268°
2026-05-05 13:48 42.07865 13.90579 8468 ft 269 kts 268°
2026-05-05 13:48 42.07796 13.88080 8371 ft 268 kts 268°
2026-05-05 13:48 42.07726 13.85569 8246 ft 268 kts 268°
2026-05-05 13:48 42.07655 13.83069 8128 ft 268 kts 268°
2026-05-05 13:49 42.07584 13.80568 8018 ft 267 kts 268°
2026-05-05 13:49 42.07513 13.78093 7898 ft 268 kts 268°
2026-05-05 13:49 42.07441 13.75561 7782 ft 268 kts 268°
2026-05-05 13:49 42.07369 13.73073 7662 ft 267 kts 268°
2026-05-05 13:50 42.07297 13.70573 7532 ft 267 kts 268°
2026-05-05 13:50 42.07224 13.68099 7403 ft 268 kts 268°
2026-05-05 13:50 42.07150 13.65587 7276 ft 268 kts 268°
2026-05-05 13:50 42.07076 13.63088 7148 ft 268 kts 268°
2026-05-05 13:51 42.07000 13.60593 7024 ft 268 kts 268°
2026-05-05 13:51 42.06926 13.58099 6905 ft 267 kts 268°
2026-05-05 13:51 42.06847 13.55599 6774 ft 266 kts 268°
2026-05-05 13:51 42.06768 13.53125 6700 ft 266 kts 268°
2026-05-05 13:52 42.06694 13.50641 6649 ft 265 kts 268°
2026-05-05 13:52 42.06620 13.48164 6617 ft 265 kts 268°
2026-05-05 13:52 42.06543 13.45718 6756 ft 266 kts 268°
2026-05-05 13:52 42.06464 13.43184 6953 ft 283 kts 268°
2026-05-05 13:53 42.06379 13.40517 7858 ft 290 kts 268°
2026-05-05 13:53 42.06293 13.37860 9068 ft 286 kts 268°
2026-05-05 13:53 42.06206 13.35181 9989 ft 292 kts 268°
2026-05-05 13:53 42.06119 13.32478 10615 ft 284 kts 267°
2026-05-05 13:54 42.05960 13.29879 10976 ft 278 kts 260°
2026-05-05 13:54 42.05458 13.27392 11037 ft 276 kts 250°
2026-05-05 13:54 42.04621 13.25098 11059 ft 276 kts 242°
2026-05-05 13:54 42.03631 13.22858 11062 ft 276 kts 241°
2026-05-05 13:55 42.02639 13.20658 11063 ft 275 kts 241°
2026-05-05 13:55 42.01651 13.18458 11146 ft 274 kts 241°
2026-05-05 13:55 42.00705 13.16350 11598 ft 258 kts 241°
2026-05-05 13:55 41.99799 13.14298 12081 ft 256 kts 243°
2026-05-05 13:56 41.98998 13.12191 12555 ft 256 kts 247°
2026-05-05 13:56 41.98245 13.10009 13047 ft 256 kts 247°
2026-05-05 13:56 41.97500 13.07841 13527 ft 257 kts 247°
2026-05-05 13:56 41.96759 13.05687 14002 ft 258 kts 246°
2026-05-05 13:57 41.96007 13.03506 14480 ft 260 kts 246°
2026-05-05 13:57 41.95244 13.01293 14978 ft 262 kts 246°
2026-05-05 13:57 41.94476 12.99070 15476 ft 264 kts 246°
2026-05-05 13:57 41.93705 12.96840 15904 ft 266 kts 246°
2026-05-05 13:58 41.92928 12.94601 16043 ft 267 kts 246°
2026-05-05 13:58 41.92150 12.92356 16048 ft 266 kts 246°
2026-05-05 13:58 41.91361 12.90084 16049 ft 266 kts 246°
2026-05-05 13:58 41.90588 12.87856 16050 ft 266 kts 246°
2026-05-05 13:59 41.89030 12.83374 16056 ft 266 kts 246°
2026-05-05 13:59 41.88241 12.81103 16056 ft 266 kts 246°
2026-05-05 14:00 41.86684 12.76620 16057 ft 265 kts 246°
2026-05-05 14:00 41.86160 12.75112 16058 ft 265 kts 246°
2026-05-05 14:00 41.84393 12.70043 15911 ft 267 kts 246°
2026-05-05 14:01 41.83609 12.67797 15503 ft 267 kts 246°
2026-05-05 14:01 41.82823 12.65546 15129 ft 266 kts 246°
2026-05-05 14:01 41.82050 12.63335 14772 ft 264 kts 246°
2026-05-05 14:01 41.81367 12.61063 14383 ft 262 kts 259°
2026-05-05 14:02 41.81410 12.58652 14010 ft 261 kts 284°
2026-05-05 14:02 41.82211 12.56514 13656 ft 264 kts 306°
2026-05-05 14:02 41.83504 12.54730 13326 ft 264 kts 311°
2026-05-05 14:02 41.84798 12.53006 12994 ft 263 kts 311°
2026-05-05 14:03 41.86090 12.51268 12659 ft 262 kts 311°
2026-05-05 14:03 41.87369 12.49544 12324 ft 261 kts 311°
2026-05-05 14:03 41.88636 12.47835 11987 ft 260 kts 312°
2026-05-05 14:03 41.90071 12.46336 11634 ft 264 kts 326°
2026-05-05 14:04 41.91757 12.45363 11304 ft 267 kts 337°
2026-05-05 14:04 41.93541 12.44612 10973 ft 267 kts 339°
2026-05-05 14:04 41.95318 12.43896 10647 ft 265 kts 339°
2026-05-05 14:04 41.97059 12.43191 10323 ft 264 kts 339°
2026-05-05 14:05 41.98832 12.42464 9991 ft 263 kts 339°
2026-05-05 14:05 42.00571 12.41745 9666 ft 262 kts 339°
2026-05-05 14:05 42.02317 12.41022 9337 ft 261 kts 339°
2026-05-05 14:05 42.04039 12.40305 9014 ft 261 kts 339°
2026-05-05 14:06 42.05765 12.39586 8690 ft 260 kts 339°
2026-05-05 14:06 42.07491 12.38867 8366 ft 259 kts 339°
2026-05-05 14:06 42.09213 12.38150 8046 ft 257 kts 339°
2026-05-05 14:06 42.10901 12.37447 7749 ft 253 kts 339°
2026-05-05 14:07 42.12604 12.36735 7601 ft 255 kts 339°
2026-05-05 14:07 42.14296 12.36025 7288 ft 254 kts 340°
2026-05-05 14:07 42.15963 12.35297 6960 ft 253 kts 334°
2026-05-05 14:07 42.17323 12.33906 6581 ft 242 kts 298°
2026-05-05 14:08 42.17829 12.31836 6266 ft 234 kts 269°
2026-05-05 14:08 42.17539 12.29716 5965 ft 228 kts 250°
2026-05-05 14:08 42.17025 12.27699 5669 ft 226 kts 250°
2026-05-05 14:08 42.16537 12.25712 5378 ft 224 kts 250°
2026-05-05 14:09 42.16069 12.23751 5092 ft 221 kts 251°
2026-05-05 14:09 42.15605 12.21786 4805 ft 218 kts 250°
2026-05-05 14:09 42.14991 12.19928 4477 ft 215 kts 228°
2026-05-05 14:09 42.13798 12.18819 4170 ft 213 kts 197°
2026-05-05 14:10 42.12351 12.18378 3926 ft 213 kts 192°
2026-05-05 14:10 42.10926 12.17980 3743 ft 203 kts 192°
2026-05-05 14:10 42.09580 12.17590 3431 ft 198 kts 192°
2026-05-05 14:10 42.08245 12.17270 3144 ft 191 kts 186°
2026-05-05 14:11 42.06949 12.17207 2956 ft 179 kts 177°
2026-05-05 14:11 42.05769 12.17412 2937 ft 163 kts 169°
2026-05-05 14:11 42.04714 12.17758 2909 ft 150 kts 165°
2026-05-05 14:11 42.03715 12.18154 2902 ft 151 kts 164°
2026-05-05 14:12 42.02721 12.18563 2720 ft 148 kts 163°
2026-05-05 14:12 42.01749 12.18969 2515 ft 146 kts 163°
2026-05-05 14:12 42.00772 12.19377 2477 ft 145 kts 163°
2026-05-05 14:12 41.99807 12.19782 2470 ft 146 kts 163°
2026-05-05 14:13 41.98838 12.20188 2467 ft 146 kts 163°
2026-05-05 14:13 41.97868 12.20595 2468 ft 146 kts 163°
2026-05-05 14:13 41.96895 12.21003 2456 ft 146 kts 163°
2026-05-05 14:13 41.95934 12.21406 2284 ft 145 kts 163°
2026-05-05 14:14 41.94967 12.21810 2097 ft 144 kts 162°
2026-05-05 14:14 41.94005 12.22213 1916 ft 144 kts 162°
2026-05-05 14:14 41.93045 12.22614 1728 ft 144 kts 162°
2026-05-05 14:14 41.92099 12.23010 1539 ft 143 kts 162°
2026-05-05 14:15 41.91140 12.23412 1350 ft 143 kts 162°
2026-05-05 14:15 41.90198 12.23807 1165 ft 142 kts 162°
2026-05-05 14:15 41.89244 12.24197 991 ft 142 kts 163°
2026-05-05 14:15 41.88304 12.24539 856 ft 142 kts 163°
2026-05-05 14:16 41.87353 12.24952 671 ft 143 kts 161°
2026-05-05 14:16 41.86431 12.25361 446 ft 140 kts 160°
2026-05-05 14:16 41.85491 12.25769 271 ft 141 kts 161°
2026-05-05 14:16 41.84566 12.26156 81 ft 140 kts 161°
2026-05-05 14:17 41.83655 12.26543 13 ft 127 kts 161°
2026-05-05 14:17 41.83007 12.26809 11 ft 71 kts 165°
2026-05-05 14:17 41.82753 12.26871 10 ft 15 kts 181°
2026-05-05 14:17 41.82648 12.26852 10 ft 14 kts 193°
2026-05-05 14:18 41.82550 12.26825 10 ft 14 kts 191°
2026-05-05 14:18 41.82483 12.26807 10 ft 8 kts 194°
2026-05-05 14:18 41.82424 12.26787 10 ft 9 kts 193°
2026-05-05 14:18 41.82358 12.26780 11 ft 9 kts 180°
2026-05-05 14:19 41.82291 12.26789 10 ft 9 kts 166°
2026-05-05 14:19 41.82226 12.26818 10 ft 8 kts 160°
2026-05-05 14:19 41.82184 12.26838 11 ft 6 kts 159°
2026-05-05 14:19 41.82140 12.26858 11 ft 6 kts 162°
2026-05-05 14:20 41.82101 12.26874 11 ft 0 kts 162°
2026-05-05 14:20 41.82100 12.26875 11 ft 0 kts 162°
2026-05-05 14:20 41.82089 12.26879 11 ft 5 kts 164°
2026-05-05 14:20 41.81990 12.26921 11 ft 23 kts 160°
2026-05-05 14:21 41.81823 12.26989 11 ft 25 kts 161°
2026-05-05 14:21 41.81654 12.27060 12 ft 26 kts 162°
2026-05-05 14:21 41.81477 12.27132 12 ft 26 kts 162°
2026-05-05 14:21 41.81301 12.27207 12 ft 26 kts 162°
2026-05-05 14:22 41.81140 12.27274 13 ft 23 kts 163°
2026-05-05 14:22 41.80978 12.27345 13 ft 24 kts 167°
2026-05-05 14:22 41.80804 12.27327 13 ft 25 kts 192°
2026-05-05 14:22 41.80650 12.27223 13 ft 26 kts 246°
2026-05-05 14:23 41.80589 12.26987 14 ft 27 kts 249°
2026-05-05 14:23 41.80523 12.26744 14 ft 26 kts 249°
2026-05-05 14:23 41.80468 12.26549 15 ft 18 kts 248°
2026-05-05 14:23 41.80419 12.26380 15 ft 20 kts 250°
2026-05-05 14:24 41.80368 12.26371 15 ft 11 kts 166°
2026-05-05 14:24 41.80307 12.26389 15 ft 9 kts 160°
2026-05-05 14:24 41.80240 12.26402 15 ft 13 kts 174°
2026-05-05 14:24 41.80135 12.26360 16 ft 16 kts 203°
2026-05-05 14:25 41.80027 12.26292 16 ft 27 kts 206°
2026-05-05 14:25 41.79812 12.26159 16 ft 23 kts 204°
2026-05-05 14:25 41.79777 12.26134 16 ft 1 kts 216°
2026-05-05 14:25 41.79775 12.26132 16 ft 8 kts 215°
2026-05-05 14:26 41.79672 12.26056 16 ft 15 kts 204°
2026-05-05 14:26 41.79644 12.25997 16 ft 0 kts 292°
2026-05-05 14:26 41.79650 12.25980 16 ft 3 kts 293°
2026-05-05 14:26 41.79654 12.25966 16 ft 0 kts 294°